Year,Month,Day,Hour,Minute,Value (Times are PST for temperature in C)
2016,04,21,00,00,14.60
2016,04,21,00,01,14.50
2016,04,21,00,02,14.50
2016,04,21,00,03,14.40
2016,04,21,00,04,14.40
2016,04,21,00,05,14.40
2016,04,21,00,06,14.40
2016,04,21,00,07,14.40
2016,04,21,00,08,14.40
2016,04,21,00,09,14.30
2016,04,21,00,10,14.30
2016,04,21,00,11,14.30
2016,04,21,00,12,14.30
2016,04,21,00,13,14.30
2016,04,21,00,14,14.30
2016,04,21,00,15,14.30
2016,04,21,00,16,14.30
2016,04,21,00,17,14.30
2016,04,21,00,18,14.30
2016,04,21,00,19,14.30
2016,04,21,00,20,14.20
2016,04,21,00,21,14.20
2016,04,21,00,22,14.20
2016,04,21,00,23,14.20
2016,04,21,00,24,14.20
2016,04,21,00,25,14.20
2016,04,21,00,26,14.20
2016,04,21,00,27,14.20
2016,04,21,00,28,14.20
2016,04,21,00,29,14.10
2016,04,21,00,30,14.10
2016,04,21,00,31,14.10
2016,04,21,00,32,14.10
2016,04,21,00,33,14.10
2016,04,21,00,34,14.10
2016,04,21,00,35,14.10
2016,04,21,00,36,14.00
2016,04,21,00,37,14.00
2016,04,21,00,38,14.00
2016,04,21,00,39,14.00
2016,04,21,00,40,14.00
2016,04,21,00,41,14.00
2016,04,21,00,42,14.00
2016,04,21,00,43,14.00
2016,04,21,00,44,14.00
2016,04,21,00,45,14.00
2016,04,21,00,46,14.00
2016,04,21,00,47,14.00
2016,04,21,00,48,13.90
2016,04,21,00,49,13.90
2016,04,21,00,50,13.90
2016,04,21,00,51,13.90
2016,04,21,00,52,13.80
2016,04,21,00,53,13.80
2016,04,21,00,54,13.80
2016,04,21,00,55,13.80
2016,04,21,00,56,13.70
2016,04,21,00,57,13.70
2016,04,21,00,58,13.70
2016,04,21,00,59,13.60
2016,04,21,01,00,13.60
2016,04,21,01,01,13.60
2016,04,21,01,02,13.60
2016,04,21,01,03,13.60
2016,04,21,01,04,13.60
2016,04,21,01,05,13.50
2016,04,21,01,06,13.50
2016,04,21,01,07,13.50
2016,04,21,01,08,13.40
2016,04,21,01,09,13.40
2016,04,21,01,10,13.40
2016,04,21,01,11,13.40
2016,04,21,01,12,13.30
2016,04,21,01,13,13.30
2016,04,21,01,14,13.30
2016,04,21,01,15,13.30
2016,04,21,01,16,13.30
2016,04,21,01,17,13.30
2016,04,21,01,18,13.30
2016,04,21,01,19,13.30
2016,04,21,01,20,13.30
2016,04,21,01,21,13.30
2016,04,21,01,22,13.30
2016,04,21,01,23,13.20
2016,04,21,01,24,13.20
2016,04,21,01,25,13.20
2016,04,21,01,26,13.20
2016,04,21,01,27,13.20
2016,04,21,01,28,13.20
2016,04,21,01,29,13.20
2016,04,21,01,30,13.20
2016,04,21,01,31,13.20
2016,04,21,01,32,13.20
2016,04,21,01,33,13.20
2016,04,21,01,34,13.20
2016,04,21,01,35,13.20
2016,04,21,01,36,13.10
2016,04,21,01,37,13.10
2016,04,21,01,38,13.10
2016,04,21,01,39,13.10
2016,04,21,01,40,13.10
2016,04,21,01,41,13.10
2016,04,21,01,42,13.00
2016,04,21,01,43,13.00
2016,04,21,01,44,13.00
2016,04,21,01,45,12.90
2016,04,21,01,46,12.90
2016,04,21,01,47,12.90
2016,04,21,01,48,12.80
2016,04,21,01,49,12.80
2016,04,21,01,50,12.80
2016,04,21,01,51,12.80
2016,04,21,01,52,12.80
2016,04,21,01,53,12.80
2016,04,21,01,54,12.70
2016,04,21,01,55,12.70
2016,04,21,01,56,12.70
2016,04,21,01,57,12.70
2016,04,21,01,58,12.70
2016,04,21,01,59,12.70
2016,04,21,02,00,12.70
2016,04,21,02,01,12.70
2016,04,21,02,02,12.70
2016,04,21,02,03,12.70
2016,04,21,02,04,12.70
2016,04,21,02,05,12.70
2016,04,21,02,06,12.70
2016,04,21,02,07,12.70
2016,04,21,02,08,12.70
2016,04,21,02,09,12.70
2016,04,21,02,10,12.70
2016,04,21,02,11,12.70
2016,04,21,02,12,12.70
2016,04,21,02,13,12.80
2016,04,21,02,14,12.80
2016,04,21,02,15,12.80
2016,04,21,02,16,12.80
2016,04,21,02,17,12.80
2016,04,21,02,18,12.80
2016,04,21,02,19,12.80
2016,04,21,02,20,12.80
2016,04,21,02,21,12.80
2016,04,21,02,22,12.80
2016,04,21,02,23,12.90
2016,04,21,02,24,12.90
2016,04,21,02,25,12.90
2016,04,21,02,26,12.90
2016,04,21,02,27,12.90
2016,04,21,02,28,12.90
2016,04,21,02,29,12.90
2016,04,21,02,30,12.90
2016,04,21,02,31,12.90
2016,04,21,02,32,12.90
2016,04,21,02,33,12.90
2016,04,21,02,34,12.90
2016,04,21,02,35,12.90
2016,04,21,02,36,12.90
2016,04,21,02,37,12.90
2016,04,21,02,38,12.90
2016,04,21,02,39,12.90
2016,04,21,02,40,12.90
2016,04,21,02,41,12.90
2016,04,21,02,42,12.90
2016,04,21,02,43,12.90
2016,04,21,02,44,12.90
2016,04,21,02,45,12.90
2016,04,21,02,46,12.90
2016,04,21,02,47,12.90
2016,04,21,02,48,12.90
2016,04,21,02,49,12.90
2016,04,21,02,50,12.90
2016,04,21,02,51,13.00
2016,04,21,02,52,13.00
2016,04,21,02,53,13.00
2016,04,21,02,54,13.00
2016,04,21,02,55,13.10
2016,04,21,02,56,13.10
2016,04,21,02,57,13.10
2016,04,21,02,58,13.10
2016,04,21,02,59,13.20
2016,04,21,03,00,13.20
2016,04,21,03,01,13.20
2016,04,21,03,02,13.30
2016,04,21,03,03,13.30
2016,04,21,03,04,13.30
2016,04,21,03,05,13.30
2016,04,21,03,06,13.30
2016,04,21,03,07,13.30
2016,04,21,03,08,13.30
2016,04,21,03,09,13.30
2016,04,21,03,10,13.30
2016,04,21,03,11,13.40
2016,04,21,03,12,13.40
2016,04,21,03,13,13.40
2016,04,21,03,14,13.40
2016,04,21,03,15,13.40
2016,04,21,03,16,13.40
2016,04,21,03,17,13.40
2016,04,21,03,18,13.40
2016,04,21,03,19,13.30
2016,04,21,03,20,13.30
2016,04,21,03,21,13.30
2016,04,21,03,22,13.30
2016,04,21,03,23,13.30
2016,04,21,03,24,13.20
2016,04,21,03,25,13.20
2016,04,21,03,26,13.20
2016,04,21,03,27,13.20
2016,04,21,03,28,13.20
2016,04,21,03,29,13.20
2016,04,21,03,30,13.20
2016,04,21,03,31,13.20
2016,04,21,03,32,13.10
2016,04,21,03,33,13.10
2016,04,21,03,34,13.10
2016,04,21,03,35,13.10
2016,04,21,03,36,13.10
2016,04,21,03,37,13.00
2016,04,21,03,38,13.00
2016,04,21,03,39,13.00
2016,04,21,03,40,13.00
2016,04,21,03,41,12.90
2016,04,21,03,42,12.90
2016,04,21,03,43,12.90
2016,04,21,03,44,12.90
2016,04,21,03,45,12.80
2016,04,21,03,46,12.80
2016,04,21,03,47,12.80
2016,04,21,03,48,12.80
2016,04,21,03,49,12.80
2016,04,21,03,50,12.80
2016,04,21,03,51,12.80
2016,04,21,03,52,12.80
2016,04,21,03,53,12.80
2016,04,21,03,54,12.80
2016,04,21,03,55,12.80
2016,04,21,03,56,12.80
2016,04,21,03,57,12.80
2016,04,21,03,58,12.80
2016,04,21,03,59,12.80
2016,04,21,04,00,12.80
2016,04,21,04,01,12.80
2016,04,21,04,02,12.80
2016,04,21,05,04,12.60
2016,04,21,05,05,12.60
2016,04,21,05,06,12.60
2016,04,21,05,07,12.60
2016,04,21,05,08,12.70
2016,04,21,05,09,12.70
2016,04,21,05,10,12.70
2016,04,21,05,11,12.70
2016,04,21,05,12,12.70
2016,04,21,05,13,12.70
2016,04,21,05,14,12.70
2016,04,21,05,15,12.70
2016,04,21,05,16,12.70
2016,04,21,05,17,12.70
2016,04,21,05,18,12.70
2016,04,21,05,19,12.70
2016,04,21,05,20,12.70
2016,04,21,05,21,12.70
2016,04,21,05,22,12.70
2016,04,21,05,23,12.70
2016,04,21,05,24,12.70
2016,04,21,05,25,12.70
2016,04,21,05,26,12.70
2016,04,21,05,27,12.70
2016,04,21,05,28,12.70
2016,04,21,05,29,12.70
2016,04,21,05,30,12.70
2016,04,21,05,31,12.70
2016,04,21,05,32,12.70
2016,04,21,05,33,12.70
2016,04,21,05,34,12.70
2016,04,21,05,35,12.70
2016,04,21,05,36,12.60
2016,04,21,05,37,12.60
2016,04,21,05,38,12.60
2016,04,21,05,39,12.60
2016,04,21,05,40,12.60
2016,04,21,05,41,12.60
2016,04,21,05,42,12.60
2016,04,21,05,43,12.60
2016,04,21,05,44,12.60
2016,04,21,05,45,12.60
2016,04,21,05,46,12.50
2016,04,21,05,47,12.50
2016,04,21,05,48,12.50
2016,04,21,05,49,12.40
2016,04,21,05,50,12.40
2016,04,21,05,51,12.40
2016,04,21,05,52,12.40
2016,04,21,05,53,12.40
2016,04,21,05,54,12.30
2016,04,21,05,55,12.30
2016,04,21,05,56,12.30
2016,04,21,05,57,12.30
2016,04,21,05,58,12.30
2016,04,21,05,59,12.30
2016,04,21,06,00,12.30
2016,04,21,06,01,12.30
2016,04,21,06,02,12.20
2016,04,21,06,03,12.20
2016,04,21,06,04,12.20
2016,04,21,06,05,12.20
2016,04,21,06,06,12.20
2016,04,21,06,07,12.20
2016,04,21,06,08,12.20
2016,04,21,06,09,12.20
2016,04,21,06,10,12.20
2016,04,21,06,11,12.20
2016,04,21,06,12,12.10
2016,04,21,06,13,12.10
2016,04,21,06,14,12.10
2016,04,21,06,15,12.10
2016,04,21,06,16,12.10
2016,04,21,06,17,12.10
2016,04,21,06,18,12.10
2016,04,21,06,19,12.10
2016,04,21,06,20,12.10
2016,04,21,06,21,12.10
2016,04,21,06,22,12.10
2016,04,21,06,23,12.10
2016,04,21,06,24,12.10
2016,04,21,06,25,12.10
2016,04,21,06,26,12.10
2016,04,21,06,27,12.10
2016,04,21,06,28,12.10
2016,04,21,06,29,12.10
2016,04,21,06,30,12.10
2016,04,21,06,31,12.10
2016,04,21,06,32,12.10
2016,04,21,06,33,12.10
2016,04,21,06,34,12.10
2016,04,21,06,35,12.10
2016,04,21,06,36,12.10
2016,04,21,06,37,12.10
2016,04,21,06,38,12.10
2016,04,21,06,39,12.10
2016,04,21,06,40,12.10
2016,04,21,06,41,12.10
2016,04,21,06,42,12.10
2016,04,21,06,43,12.10
2016,04,21,06,44,12.10
2016,04,21,06,45,12.10
2016,04,21,06,46,12.10
2016,04,21,06,47,12.10
2016,04,21,06,48,12.10
2016,04,21,06,49,12.10
2016,04,21,06,50,12.10
2016,04,21,06,51,12.10
2016,04,21,06,52,12.10
2016,04,21,06,53,12.10
2016,04,21,06,54,12.10
2016,04,21,06,55,12.10
2016,04,21,06,56,12.10
2016,04,21,06,57,12.10
2016,04,21,06,58,12.10
2016,04,21,06,59,12.10
2016,04,21,07,00,12.10
2016,04,21,07,01,12.10
2016,04,21,07,02,12.10
2016,04,21,07,03,12.10
2016,04,21,07,04,12.10
2016,04,21,07,05,12.10
2016,04,21,07,06,12.10
2016,04,21,07,07,12.10
2016,04,21,07,08,12.10
2016,04,21,07,09,12.20
2016,04,21,07,10,12.20
2016,04,21,07,11,12.20
2016,04,21,07,12,12.20
2016,04,21,07,13,12.20
2016,04,21,07,14,12.20
2016,04,21,07,15,12.20
2016,04,21,07,16,12.20
2016,04,21,07,17,12.20
2016,04,21,07,18,12.30
2016,04,21,07,19,12.30
2016,04,21,07,20,12.30
2016,04,21,07,21,12.30
2016,04,21,07,22,12.30
2016,04,21,07,23,12.30
2016,04,21,07,24,12.30
2016,04,21,07,25,12.20
2016,04,21,07,26,12.20
2016,04,21,07,27,12.10
2016,04,21,07,28,12.10
2016,04,21,07,29,12.10
2016,04,21,07,30,12.10
2016,04,21,07,31,12.10
2016,04,21,07,32,12.10
2016,04,21,07,33,12.00
2016,04,21,07,34,12.00
2016,04,21,07,35,12.00
2016,04,21,07,36,12.00
2016,04,21,07,37,12.00
2016,04,21,07,38,11.90
2016,04,21,07,39,11.90
2016,04,21,07,40,11.90
2016,04,21,07,41,11.90
2016,04,21,07,42,11.90
2016,04,21,07,43,11.90
2016,04,21,07,44,11.90
2016,04,21,07,45,11.90
2016,04,21,07,46,11.90
2016,04,21,07,47,11.90
2016,04,21,07,48,11.90
2016,04,21,07,49,11.90
2016,04,21,07,50,11.90
2016,04,21,07,51,11.90
2016,04,21,07,52,11.90
2016,04,21,07,53,11.90
2016,04,21,07,54,11.90
2016,04,21,07,55,11.90
2016,04,21,07,56,11.90
2016,04,21,07,57,11.90
2016,04,21,07,58,12.00
2016,04,21,07,59,12.00
2016,04,21,08,00,12.10
2016,04,21,08,01,12.10
2016,04,21,08,02,12.10
2016,04,21,08,03,12.20
2016,04,21,08,04,12.20
2016,04,21,08,05,12.30
2016,04,21,08,06,12.30
2016,04,21,08,07,12.30
2016,04,21,08,08,12.30
2016,04,21,08,09,12.30
2016,04,21,08,10,12.30
2016,04,21,08,11,12.30
2016,04,21,08,12,12.40
2016,04,21,08,13,12.40
2016,04,21,08,14,12.40
2016,04,21,08,15,12.40
2016,04,21,08,16,12.40
2016,04,21,08,17,12.40
2016,04,21,08,18,12.40
2016,04,21,08,19,12.40
2016,04,21,08,20,12.40
2016,04,21,08,21,12.40
2016,04,21,08,22,12.40
2016,04,21,08,23,12.40
2016,04,21,08,24,12.40
2016,04,21,08,25,12.40
2016,04,21,08,26,12.40
2016,04,21,08,27,12.40
2016,04,21,08,28,12.40
2016,04,21,08,29,12.50
2016,04,21,08,30,12.50
2016,04,21,08,31,12.60
2016,04,21,08,32,12.60
2016,04,21,08,33,12.70
2016,04,21,08,34,12.70
2016,04,21,08,35,12.70
2016,04,21,08,36,12.80
2016,04,21,08,37,12.80
2016,04,21,08,38,12.80
2016,04,21,08,39,12.80
2016,04,21,08,40,12.90
2016,04,21,08,41,12.80
2016,04,21,08,42,12.90
2016,04,21,08,43,12.90
2016,04,21,08,44,12.90
2016,04,21,08,45,12.90
2016,04,21,08,46,13.00
2016,04,21,08,47,12.90
2016,04,21,08,48,12.90
2016,04,21,08,49,13.00
2016,04,21,08,50,13.00
2016,04,21,08,51,13.00
2016,04,21,08,52,13.00
2016,04,21,08,53,13.00
2016,04,21,08,54,13.00
2016,04,21,08,55,13.10
2016,04,21,08,56,13.10
2016,04,21,08,57,13.00
2016,04,21,08,58,13.00
2016,04,21,08,59,13.00
2016,04,21,09,00,12.90
2016,04,21,09,01,12.90
2016,04,21,09,02,12.90
2016,04,21,09,03,12.90
2016,04,21,09,04,12.90
2016,04,21,09,05,12.90
2016,04,21,09,06,12.90
2016,04,21,09,07,12.90
2016,04,21,09,08,12.90
2016,04,21,09,09,13.00
2016,04,21,09,10,13.00
2016,04,21,09,11,13.10
2016,04,21,09,12,13.10
2016,04,21,09,13,13.20
2016,04,21,09,14,13.30
2016,04,21,09,15,13.30
2016,04,21,09,16,13.40
2016,04,21,09,17,13.50
2016,04,21,09,18,13.60
2016,04,21,09,19,13.70
2016,04,21,09,20,13.80
2016,04,21,09,21,13.80
2016,04,21,09,22,13.90
2016,04,21,09,23,13.90
2016,04,21,09,24,13.90
2016,04,21,09,25,13.90
2016,04,21,09,26,14.00
2016,04,21,09,27,14.00
2016,04,21,09,28,14.00
2016,04,21,09,29,14.00
2016,04,21,09,30,13.90
2016,04,21,09,31,13.90
2016,04,21,09,32,13.90
2016,04,21,09,33,13.90
2016,04,21,09,34,14.00
2016,04,21,09,35,14.10
2016,04,21,09,36,14.10
2016,04,21,09,37,14.20
2016,04,21,09,38,14.20
2016,04,21,09,39,14.30
2016,04,21,09,40,14.30
2016,04,21,09,41,14.30
2016,04,21,09,42,14.40
2016,04,21,09,43,14.40
2016,04,21,09,44,14.40
2016,04,21,09,45,14.40
2016,04,21,09,46,14.40
2016,04,21,09,47,14.40
2016,04,21,09,48,14.40
2016,04,21,09,49,14.40
2016,04,21,09,50,14.40
2016,04,21,09,51,14.50
2016,04,21,09,52,14.40
2016,04,21,09,53,14.40
2016,04,21,09,54,14.40
2016,04,21,09,55,14.40
2016,04,21,09,56,14.40
2016,04,21,09,57,14.40
2016,04,21,09,58,14.30
2016,04,21,09,59,14.30
2016,04,21,10,00,14.20
2016,04,21,10,01,14.20
2016,04,21,10,02,14.20
2016,04,21,10,03,14.30
2016,04,21,10,04,14.30
2016,04,21,10,05,14.30
2016,04,21,10,06,14.30
2016,04,21,10,07,14.40
2016,04,21,10,08,14.40
2016,04,21,10,09,14.50
2016,04,21,10,10,14.50
2016,04,21,10,11,14.50
2016,04,21,10,12,14.60
2016,04,21,10,13,14.60
2016,04,21,10,14,14.50
2016,04,21,10,15,14.50
2016,04,21,10,16,14.50
2016,04,21,10,17,14.50
2016,04,21,10,18,14.50
2016,04,21,10,19,14.50
2016,04,21,10,20,14.50
2016,04,21,10,21,14.60
2016,04,21,10,22,14.60
2016,04,21,10,23,14.60
2016,04,21,10,24,14.70
2016,04,21,10,25,14.70
2016,04,21,10,26,14.80
2016,04,21,10,27,14.80
2016,04,21,10,28,14.80
2016,04,21,10,29,14.80
2016,04,21,10,30,14.90
2016,04,21,10,31,14.90
2016,04,21,10,32,14.90
2016,04,21,10,33,14.90
2016,04,21,10,34,14.90
2016,04,21,10,35,14.90
2016,04,21,10,36,14.90
2016,04,21,10,37,14.90
2016,04,21,10,38,14.90
2016,04,21,10,39,14.90
2016,04,21,10,40,14.90
2016,04,21,10,41,15.00
2016,04,21,10,42,14.90
2016,04,21,10,43,14.90
2016,04,21,10,44,15.00
2016,04,21,10,45,15.10
2016,04,21,10,46,15.10
2016,04,21,10,47,15.20
2016,04,21,10,48,15.20
2016,04,21,10,49,15.30
2016,04,21,10,50,15.30
2016,04,21,10,51,15.30
2016,04,21,10,52,15.30
2016,04,21,10,53,15.30
2016,04,21,10,54,15.40
2016,04,21,10,55,15.40
2016,04,21,10,56,15.50
2016,04,21,10,57,15.60
2016,04,21,10,58,15.60
2016,04,21,10,59,15.60
2016,04,21,11,00,15.60
2016,04,21,11,01,15.60
2016,04,21,11,02,15.60
2016,04,21,11,03,15.60
2016,04,21,11,04,15.60
2016,04,21,11,05,15.70
2016,04,21,11,06,15.70
2016,04,21,11,07,15.70
2016,04,21,11,08,15.70
2016,04,21,11,09,15.70
2016,04,21,11,10,15.70
2016,04,21,11,11,15.80
2016,04,21,11,12,15.80
2016,04,21,11,13,15.80
2016,04,21,11,14,15.80
2016,04,21,11,15,15.80
2016,04,21,11,16,15.80
2016,04,21,11,17,15.70
2016,04,21,11,18,15.70
2016,04,21,11,19,15.70
2016,04,21,11,20,15.80
2016,04,21,11,21,15.80
2016,04,21,11,22,15.80
2016,04,21,11,23,15.90
2016,04,21,11,24,15.90
2016,04,21,11,25,15.90
2016,04,21,11,26,16.00
2016,04,21,11,27,16.00
2016,04,21,11,28,16.00
2016,04,21,11,29,16.00
2016,04,21,11,30,16.00
2016,04,21,11,31,16.00
2016,04,21,11,32,15.90
2016,04,21,11,33,15.90
2016,04,21,11,34,15.90
2016,04,21,11,35,15.90
2016,04,21,11,36,15.90
2016,04,21,11,37,15.90
2016,04,21,11,38,15.90
2016,04,21,11,39,15.90
2016,04,21,11,40,15.90
2016,04,21,11,41,15.90
2016,04,21,11,42,15.90
2016,04,21,11,43,15.90
2016,04,21,11,44,15.80
2016,04,21,11,45,15.80
2016,04,21,11,46,15.80
2016,04,21,11,47,15.70
2016,04,21,11,48,15.70
2016,04,21,11,49,15.70
2016,04,21,11,50,15.70
2016,04,21,11,51,15.70
2016,04,21,11,52,15.70
2016,04,21,11,53,15.70
2016,04,21,11,54,15.70
2016,04,21,11,55,15.60
2016,04,21,11,56,15.60
2016,04,21,11,57,15.50
2016,04,21,11,58,15.60
2016,04,21,11,59,15.60
2016,04,21,12,00,15.60
2016,04,21,12,01,15.60
2016,04,21,12,02,15.60
2016,04,21,12,03,15.60
2016,04,21,12,04,15.70
2016,04,21,12,05,15.70
2016,04,21,12,06,15.80
2016,04,21,12,07,15.70
2016,04,21,12,08,15.80
2016,04,21,12,09,15.80
2016,04,21,12,10,15.80
2016,04,21,12,11,15.90
2016,04,21,12,12,16.00
2016,04,21,12,13,16.10
2016,04,21,12,14,16.10
2016,04,21,12,15,16.10
2016,04,21,12,16,16.10
2016,04,21,12,17,16.20
2016,04,21,12,18,16.20
2016,04,21,12,19,16.20
2016,04,21,12,20,16.20
2016,04,21,12,21,16.30
2016,04,21,12,22,16.30
2016,04,21,12,23,16.30
2016,04,21,12,24,16.30
2016,04,21,12,25,16.30
2016,04,21,12,26,16.20
2016,04,21,12,27,16.20
2016,04,21,12,28,16.10
2016,04,21,12,29,16.10
2016,04,21,12,30,16.00
2016,04,21,12,31,15.90
2016,04,21,12,32,15.90
2016,04,21,12,33,15.90
2016,04,21,12,34,15.90
2016,04,21,12,35,15.90
2016,04,21,12,36,16.00
2016,04,21,12,37,16.00
2016,04,21,12,38,16.00
2016,04,21,12,39,16.10
2016,04,21,12,40,16.10
2016,04,21,12,41,16.10
2016,04,21,12,42,16.10
2016,04,21,12,43,16.20
2016,04,21,12,44,16.20
2016,04,21,12,45,16.30
2016,04,21,12,46,16.30
2016,04,21,12,47,16.40
2016,04,21,12,48,16.40
2016,04,21,12,49,16.50
2016,04,21,12,50,16.50
2016,04,21,12,51,16.50
2016,04,21,12,52,16.40
2016,04,21,12,53,16.40
2016,04,21,12,54,16.40
2016,04,21,12,55,16.40
2016,04,21,12,56,16.30
2016,04,21,12,57,16.30
2016,04,21,12,58,16.40
2016,04,21,12,59,16.40
2016,04,21,13,00,16.40
2016,04,21,13,01,16.50
2016,04,21,13,02,16.60
2016,04,21,13,03,16.60
2016,04,21,13,04,16.60
2016,04,21,13,05,16.70
2016,04,21,13,06,16.70
2016,04,21,13,07,16.70
2016,04,21,13,08,16.60
2016,04,21,13,09,16.40
2016,04,21,13,10,16.30
2016,04,21,13,11,16.20
2016,04,21,13,12,16.10
2016,04,21,13,13,16.10
2016,04,21,13,14,16.10
2016,04,21,13,15,16.10
2016,04,21,13,16,16.20
2016,04,21,13,17,16.30
2016,04,21,13,18,16.30
2016,04,21,13,19,16.30
2016,04,21,13,20,16.30
2016,04,21,13,21,16.40
2016,04,21,13,22,16.40
2016,04,21,13,23,16.50
2016,04,21,13,24,16.70
2016,04,21,13,25,16.80
2016,04,21,13,26,16.80
2016,04,21,13,27,16.80
2016,04,21,13,28,16.80
2016,04,21,13,29,16.80
2016,04,21,13,30,16.80
2016,04,21,13,31,16.80
2016,04,21,13,32,16.80
2016,04,21,13,33,16.90
2016,04,21,13,34,16.90
2016,04,21,13,35,17.00
2016,04,21,13,36,17.00
2016,04,21,13,37,17.00
2016,04,21,13,38,16.90
2016,04,21,13,39,16.90
2016,04,21,13,40,16.90
2016,04,21,13,41,16.90
2016,04,21,13,42,17.00
2016,04,21,13,43,17.00
2016,04,21,13,44,17.00
2016,04,21,13,45,17.10
2016,04,21,13,46,17.10
2016,04,21,13,47,17.10
2016,04,21,13,48,17.10
2016,04,21,13,49,17.10
2016,04,21,13,50,17.00
2016,04,21,13,51,16.90
2016,04,21,13,52,16.90
2016,04,21,13,53,16.90
2016,04,21,13,54,16.90
2016,04,21,13,55,16.90
2016,04,21,13,56,17.00
2016,04,21,13,57,17.00
2016,04,21,13,58,17.10
2016,04,21,13,59,17.10
2016,04,21,14,00,17.10
2016,04,21,14,01,17.00
2016,04,21,14,02,17.00
2016,04,21,14,03,17.00
2016,04,21,14,04,17.00
2016,04,21,14,05,17.00
2016,04,21,14,06,17.00
2016,04,21,14,07,16.90
2016,04,21,14,08,16.90
2016,04,21,14,09,16.90
2016,04,21,14,10,16.80
2016,04,21,14,11,16.90
2016,04,21,14,12,16.90
2016,04,21,14,13,17.00
2016,04,21,14,14,17.10
2016,04,21,14,15,17.10
2016,04,21,14,16,17.20
2016,04,21,14,17,17.20
2016,04,21,14,18,17.20
2016,04,21,14,19,17.20
2016,04,21,14,20,17.20
2016,04,21,14,21,17.20
2016,04,21,14,22,17.20
2016,04,21,14,23,17.20
2016,04,21,14,24,17.30
2016,04,21,14,25,17.40
2016,04,21,14,26,17.40
2016,04,21,14,27,17.50
2016,04,21,14,28,17.60
2016,04,21,14,29,17.60
2016,04,21,14,30,17.50
2016,04,21,14,31,17.50
2016,04,21,14,32,17.40
2016,04,21,14,33,17.40
2016,04,21,14,34,17.30
2016,04,21,14,35,17.30
2016,04,21,14,36,17.30
2016,04,21,14,37,17.30
2016,04,21,14,38,17.30
2016,04,21,14,39,17.30
2016,04,21,14,40,17.30
2016,04,21,14,41,17.30
2016,04,21,14,42,17.30
2016,04,21,14,43,17.30
2016,04,21,14,44,17.30
2016,04,21,14,45,17.30
2016,04,21,14,46,17.30
2016,04,21,14,47,17.30
2016,04,21,14,48,17.30
2016,04,21,14,49,17.40
2016,04,21,14,50,17.40
2016,04,21,14,51,17.50
2016,04,21,14,52,17.50
2016,04,21,14,53,17.60
2016,04,21,14,54,17.60
2016,04,21,14,55,17.70
2016,04,21,14,56,17.70
2016,04,21,14,57,17.70
2016,04,21,14,58,17.80
2016,04,21,14,59,17.80
2016,04,21,15,00,17.90
2016,04,21,15,01,18.00
2016,04,21,15,02,18.00
2016,04,21,15,03,18.10
2016,04,21,15,04,18.10
2016,04,21,15,05,18.20
2016,04,21,15,06,18.20
2016,04,21,15,07,18.30
2016,04,21,15,08,18.30
2016,04,21,15,09,18.30
2016,04,21,15,10,18.40
2016,04,21,15,11,18.40
2016,04,21,15,12,18.40
2016,04,21,15,13,18.40
2016,04,21,15,14,18.40
2016,04,21,15,15,18.50
2016,04,21,15,16,18.50
2016,04,21,15,17,18.50
2016,04,21,15,18,18.40
2016,04,21,15,19,18.30
2016,04,21,15,20,18.20
2016,04,21,15,21,18.10
2016,04,21,15,22,18.00
2016,04,21,15,23,17.90
2016,04,21,15,24,17.80
2016,04,21,15,25,17.60
2016,04,21,15,26,17.50
2016,04,21,15,27,17.40
2016,04,21,15,28,17.30
2016,04,21,15,29,17.20
2016,04,21,15,30,17.20
2016,04,21,15,31,17.20
2016,04,21,15,32,17.10
2016,04,21,15,33,17.10
2016,04,21,15,34,17.10
2016,04,21,15,35,17.10
2016,04,21,15,36,17.10
2016,04,21,15,37,17.00
2016,04,21,15,38,16.90
2016,04,21,15,39,16.90
2016,04,21,15,40,17.00
2016,04,21,15,41,17.00
2016,04,21,15,42,17.10
2016,04,21,15,43,17.10
2016,04,21,15,44,17.20
2016,04,21,15,45,17.20
2016,04,21,15,46,17.30
2016,04,21,15,47,17.30
2016,04,21,15,48,17.30
2016,04,21,15,49,17.30
2016,04,21,15,50,17.30
2016,04,21,15,51,17.30
2016,04,21,15,52,17.30
2016,04,21,15,53,17.30
2016,04,21,15,54,17.30
2016,04,21,15,55,17.30
2016,04,21,15,56,17.30
2016,04,21,15,57,17.30
2016,04,21,15,58,17.30
2016,04,21,15,59,17.30
2016,04,21,16,00,17.30
2016,04,21,16,01,17.20
2016,04,21,16,02,17.20
2016,04,21,16,03,17.20
2016,04,21,16,04,17.30
2016,04,21,16,05,17.30
2016,04,21,16,06,17.30
2016,04,21,16,07,17.30
2016,04,21,16,08,17.30
2016,04,21,16,09,17.40
2016,04,21,17,04,19.50
2016,04,21,17,05,19.50
2016,04,21,17,06,19.40
2016,04,21,17,07,19.40
2016,04,21,17,08,19.30
2016,04,21,17,09,19.20
2016,04,21,17,10,19.20
2016,04,21,17,11,19.20
2016,04,21,17,12,19.20
2016,04,21,17,13,19.20
2016,04,21,17,14,19.20
2016,04,21,17,15,19.20
2016,04,21,17,16,19.20
2016,04,21,17,17,19.20
2016,04,21,17,18,19.30
2016,04,21,17,19,19.40
2016,04,21,17,20,19.50
2016,04,21,17,21,19.50
2016,04,21,17,22,19.60
2016,04,21,17,23,19.60
2016,04,21,17,24,19.70
2016,04,21,17,25,19.70
2016,04,21,17,26,19.80
2016,04,21,17,27,19.70
2016,04,21,17,28,19.80
2016,04,21,17,29,19.80
2016,04,21,17,30,19.80
2016,04,21,17,31,19.90
2016,04,21,17,32,20.00
2016,04,21,17,33,20.00
2016,04,21,17,34,20.00
2016,04,21,17,35,20.00
2016,04,21,17,36,20.00
2016,04,21,17,37,20.10
2016,04,21,17,38,20.10
2016,04,21,17,39,20.10
2016,04,21,17,40,20.10
2016,04,21,17,41,20.10
2016,04,21,17,42,20.10
2016,04,21,17,43,20.10
2016,04,21,17,44,20.00
2016,04,21,17,45,19.90
2016,04,21,17,46,19.80
2016,04,21,17,47,19.80
2016,04,21,17,48,19.80
2016,04,21,17,49,19.80
2016,04,21,17,50,19.80
2016,04,21,17,51,19.70
2016,04,21,17,52,19.70
2016,04,21,17,53,19.80
2016,04,21,17,54,19.80
2016,04,21,17,55,19.80
2016,04,21,17,56,19.90
2016,04,21,17,57,19.80
2016,04,21,17,58,19.80
2016,04,21,17,59,19.90
2016,04,21,18,00,19.80
2016,04,21,18,01,19.80
2016,04,21,18,02,19.80
2016,04,21,18,03,19.80
2016,04,21,18,04,19.90
2016,04,21,18,05,19.90
2016,04,21,18,06,19.90
2016,04,21,18,07,19.90
2016,04,21,18,08,19.90
2016,04,21,18,09,19.90
2016,04,21,18,10,19.90
2016,04,21,18,11,19.90
2016,04,21,18,12,19.90
2016,04,21,18,13,19.80
2016,04,21,18,14,19.70
2016,04,21,18,15,19.70
2016,04,21,18,16,19.60
2016,04,21,18,17,19.60
2016,04,21,18,18,19.50
2016,04,21,18,19,19.50
2016,04,21,18,20,19.40
2016,04,21,18,21,19.40
2016,04,21,18,22,19.30
2016,04,21,18,23,19.30
2016,04,21,18,24,19.30
2016,04,21,18,25,19.30
2016,04,21,18,26,19.30
2016,04,21,18,27,19.40
2016,04,21,18,28,19.40
2016,04,21,18,29,19.40
2016,04,21,18,30,19.40
2016,04,21,18,31,19.50
2016,04,21,18,32,19.50
2016,04,21,18,33,19.60
2016,04,21,18,34,19.60
2016,04,21,18,35,19.60
2016,04,21,18,36,19.70
2016,04,21,18,37,19.70
2016,04,21,18,38,19.60
2016,04,21,18,39,19.60
2016,04,21,18,40,19.50
2016,04,21,18,41,19.40
2016,04,21,18,42,19.40
2016,04,21,18,43,19.40
2016,04,21,18,44,19.40
2016,04,21,18,45,19.40
2016,04,21,18,46,19.40
2016,04,21,18,47,19.40
2016,04,21,18,48,19.50
2016,04,21,18,49,19.50
2016,04,21,18,50,19.50
2016,04,21,18,51,19.60
2016,04,21,18,52,19.60
2016,04,21,18,53,19.60
2016,04,21,18,54,19.60
2016,04,21,18,55,19.60
2016,04,21,18,56,19.50
2016,04,21,18,57,19.50
2016,04,21,18,58,19.50
2016,04,21,18,59,19.60
2016,04,21,19,00,19.60
2016,04,21,19,01,19.60
2016,04,21,19,02,19.50
2016,04,21,19,03,19.60
2016,04,21,19,04,19.60
2016,04,21,19,05,19.50
2016,04,21,19,06,19.50
2016,04,21,19,07,19.50
2016,04,21,19,08,19.50
2016,04,21,19,09,19.50
2016,04,21,19,10,19.40
2016,04,21,19,11,19.40
2016,04,21,19,12,19.40
2016,04,21,19,13,19.30
2016,04,21,19,14,19.20